Hourly Data Report for November 28, 2000

SHERBROOKE A
QUEBEC

45°26'00.000" N
71°41'00.000" W
241.40 m
7028124
71610
YSC

Download Data

Hourly Data (November 2000)
Hourly Data Report for November 28, 2000
TIME
LST
Temp Definition
°C
Dew Point Definition
°C
Rel Hum Definition
%
Precip. Amount Definition
mm

Wind Dir Definition
10's deg

Wind Spd Definition
km/h
Visibility Definition
km
Stn Press Definition
kPa
Hmdx Definition


Wind Chill Definition


Weather Definition


00:00 0.4 0.4 100   23 6 2.6 97.66      
01:00 0.3 0.3 100   23 6 1.8 97.69      
02:00 0.1 0.1 100   23 6 1.6 97.76      
03:00 0.2 0.2 100   21 4 1.0 97.79      
04:00 0.3 0.3 100   20 6 1.1 97.86      
05:00 0.5 0.5 100   23 4 0.5 97.89      
06:00 0.5 0.5 100   21 6 0.5 97.96      
07:00 0.6 0.6 100   21 6 3.2 98.02      
08:00 0.6 0.6 100   21 4 1.2 98.09     Drizzle,Snow Grains, Fog
09:00 1.1 1.1 100   21 4 1.2 98.16     Drizzle, Fog
10:00 1.3 1.3 100   21 6 1.6 98.22     Drizzle, Fog
11:00 1.7 1.7 100   21 4 1.6 98.22     Rain, Fog
12:00 1.9 1.9 100   21 6 9.7 98.22     Rain, Fog
13:00 2.2 2.2 100   24 7 12.9 98.19     Rain
14:00 2.5 2.4 99   25 7 12.9 98.19     Drizzle
15:00 2.3 2.2 99   22 4 12.9 98.26     Cloudy
16:00 2.1 2.0 99   22 4 12.9 98.32     Cloudy
17:00 1.7 1.7 100   14 6 11.3 98.39     Cloudy
18:00 1.7 1.6 99   19 4 15.0 98.39      
19:00 1.3 1.2 99   11 4 15.0 98.39      
20:00 0.9 0.9 100     0 4.8 98.39      
21:00 0.5 0.5 100     0 4.0 98.42      
22:00 0.7 0.7 100     0 11.3 98.39      
23:00 0.4 0.4 100     0 2.9 98.39     Rain

Notes on Data Quality.

Legend

  • E = Estimated
  • M = Missing
  • NA = Not Available*
  • [empty] = Indicates an unobserved value
Date modified: